Regional Weather Roundup
Issued by NWS Mobile, AL

Home | Current Version | Previous Version | Text Only | Print | Product List | Glossary On
Versions: 1 2 3 4 5 6 7 8 9 10 11 12 13 14 15 16 17 18 19 20 21 22 23 24 25 26 27 28 29 30 31 32 33 34 35 36 37 38 39 40 41 42 43 44 45 46 47 48 49 50
000
ASUS44 KMOB 301510
RWRMOB
REGIONAL WEATHER ROUNDUP
NATIONAL WEATHER SERVICE MOBILE AL
1000 AM CDT TUE SEP 30 2014

NOTE: "FAIR" INDICATES FEW OR NO CLOUDS BELOW 12,000 FEET WITH NO
      SIGNIFICANT WEATHER AND/OR OBSTRUCTIONS TO VISIBILITY.

  * THESE STATIONS ARE PART OF THE UNIVERSITY OF SOUTH ALABAMA
    MESONET AND ARE NOT UNDER NWS OR FAA QUALITY CONTROL.

ALZ061>064-301600-
COASTAL ALABAMA

CITY           SKY/WX    TMP DP  RH WIND       PRES   REMARKS
MOBILE REG APT CLOUDY    70  70 100 NE8       29.94S FOG
BROOKLEY FIELD CLOUDY    74  70  87 NE6       29.94S
USA CAMPUS*      N/A     72  70  94 CALM      29.93S
DOG RIVER*     NOT AVBL


CITY           SKY/WX    TMP DP  RH WIND       PRES   REMARKS
MOUNT VERNON*    N/A     72  68  88 NE3       29.94S
SARALAND*      NOT AVBL
BAY MINETTE*   NOT AVBL
LOXLEY*          N/A     73  68  83 NE7       29.93S
ROBERTSDALE*     N/A     75  70  83 NE3       29.93S
FAIRHOPE*        N/A     73  70  88 NE10      29.92S
ELBERTA*         N/A     73  70  88 N3        29.91S
FOLEY*         NOT AVBL
GRAND BAY*       N/A     73  70  88 NE3       29.91S
DAUPHIN ISLND* NOT AVBL
BON SCOUR NWR* NOT AVBL
GULF SHORES    CLOUDY    75  71  87 NE7       29.92R

$$

ALZ051>060-301600-
INTERIOR SOUTHWEST AND SOUTH CENTRAL ALABAMA

CITY           SKY/WX    TMP DP  RH WIND       PRES   REMARKS
GREENVILLE     CLOUDY    72  66  81 E5        29.95S
EVERGREEN      CLOUDY    74  69  85 NE6       29.95S
CASTLEBERRY*   NOT AVBL
ATMORE*          N/A     73  68  83 E7        29.96R
DIXIE*         NOT AVBL
ANDALUSIA/OPP  CLOUDY    76  66  71 NE6       29.94S
ANDALUSIA*     NOT AVBL
FLORALA APT    CLOUDY    74  66  76 NE8       29.95S
FLORALA*         N/A     72  64  78 N7        29.91R

$$

FLZ001>006-301600-
WESTERN FLORIDA PANHANDLE

CITY           SKY/WX    TMP DP  RH WIND       PRES   REMARKS
PENSACOLA      CLOUDY    75  68  78 NE7       29.92S
NAS PENSACOLA  PTSUNNY   76  69  79 E10       29.92R
MILTON         PTSUNNY   75  67  76 NE5       29.93S
WHTNG S FIELD  PTSUNNY   76  68  76 NE8       29.93S


CITY           SKY/WX    TMP DP  RH WIND       PRES   REMARKS
WALNUT HILL*   NOT AVBL
JAY*             N/A     73  66  78 E5        29.94S
DUKE FIELD     CLOUDY    74  70  86 NE8       29.92S
CRESTVIEW      CLOUDY    74  69  85 N6        29.94S
VALPARAISO     CLOUDY    76  68  77 NE8       29.91S
DESTIN         CLOUDY    76  70  82 NE3       29.91S

$$

MSZ076-079-301600-
INTERIOR SOUTHEAST MISSISSIPPI

CITY           SKY/WX    TMP DP  RH WIND       PRES   REMARKS
LEAKESVILLE*   NOT AVBL
AGRICOLA*      NOT AVBL

$$

MARINE OBSERVATIONS

STATION/POSITION TIME  TEMP    WIND        PRES    WAVE
                       AIR SEA DIR/SP/G            HT/PER
                 (UTC) (F)     (DEG/KT/KT) (MB)    (FT/S)
PASCAGOULA       1500   76      60/  4/  6 1012.8R
PETIT BOIS ISLND 1500   74      70/  9/ 11 1013.4R
GRAND BAY        1400   73      70/  9     1014.0S
KATRINA CUT      1400   73      60/ 12     1013.9R
CEDAR POINT      1400   71      50/ 10     1013.5R
E DAUPHIN ISLAND 1400   72      40/ 11/ 12 1013.0R
MIDDLE BAY LIGHT 1400   71      50/  8     1012.9S
USCG MOBILE BAY  1500   72 79              1012.4R
STATE DOCKS      1500   75 80              1013.2R
MEAHER PARK      1400   74      50/  4     1013.2S
WEEKS BAY        1400   72                   N/A
FORT MORGAN      1500   73      80/  8/ 10 1012.8R
12 S ORANGE BCH  1500   76 82   50/ 16/ 17 1012.8R   2/ 5
PENSACOLA BAY    1500   75 78   60/  4/  8 1013.3R
64 S DAUPHIN ISL 1406   80 82   80/ 10/ 12 1012.7R   2/ 5
67 S FORT MORGAN 1400   80                 1011.9S

$$

SELECTED LOCATIONS ACROSS THE REGION

CITY           SKY/WX    TMP DP  RH WIND       PRES   REMARKS
NEW ORLEANS    PTSUNNY   81  71  71 E5        29.91R
GULFPORT       SUNNY     79  71  76 VRB5      29.91R
PASCAGOULA AP  CLOUDY    76  70  82 NE9       29.92S
PASCAGOULA*      N/A     77  72  83 NE7       29.91S
HATTIESBURG    PTSUNNY   76  71  85 E7        29.94S
LAUREL         MOSUNNY   75  70  83 NE6       29.96R
MERIDIAN       CLOUDY    75  67  76 E7        29.97R
JACKSON        MOSUNNY   82  69  64 SW3       29.95R
MONTGOMERY     CLOUDY    74  66  76 E5        29.96S
TROY           PTSUNNY   75  65  70 VRB5      29.95F
KINSTON*       NOT AVBL
GENEVA*          N/A     72  66  83 NE10      29.95S
ASHFORD*       NOT AVBL
DOTHAN         CLOUDY    71  67  87 NE9       29.97S
PANAMA CITY    CLOUDY    75  69  81 N6        29.90S

$$



USA.gov is the U.S. government's official web portal to all federal, state and local government web resources and services.